[[{"header":{"parameterUnit":"m.s-1","parameterCategory":1,"la1":30.2991,"la2":30.254,"lo1":-89.0895,"lo2":-89.0444,"dy":0.0017,"dx":0.0017,"nx":28,"ny":28,"refTime":"2025-04-27T03:00:00:Z","depth":0,"parameterNumber":2,"parameterNumberName":"U-component_of_WINDS"},"data":[0,0,0,0,0,0,0,0,0,0,0,0,0,0,0,0,0,0,0,0,0,0,0,0,0,0,0,0,0,0,0,0,0,0,0,0,0,0,0,0,0,0,0,0,0,0,0,0,0,0,0,0,0,0,0,0,0,0,-1.2011,-1.201,0,-1.1954,-1.1953,-1.1953,-1.1977,-1.1978,-1.1979,-1.1981,-1.1919,-1.1916,-1.1913,0,0,0,0,0,0,0,0,0,0,0,0,0,-1.2138,-1.2135,-1.2011,-1.201,-1.2009,-1.1954,-1.1953,-1.1953,-1.1976,-1.1978,-1.198,-1.1981,-1.192,-1.1916,-1.1913,0,0,0,0,0,0,0,0,0,0,0,0,0,-1.2082,-1.2134,-1.2011,-1.2015,-1.2014,-1.1954,-1.1953,-1.1952,-1.1976,-1.1978,-1.198,-1.1982,-1.1921,-1.1917,-1.1912,-1.1844,0,0,-1.1899,-1.1897,0,0,0,0,0,0,0,0,-1.2085,-1.2077,-1.2015,-1.2014,-1.2014,-1.1975,-1.1976,-1.1916,-1.1975,-1.199,-1.1981,-1.1983,-1.1935,-1.193,-1.1915,-1.1841,-1.1838,-1.1898,-1.1896,-1.1894,-1.1893,0,0,0,0,0,0,0,-1.2089,-1.208,-1.1988,-1.2014,-1.2013,-1.2019,-1.2013,-1.1964,-1.1952,-1.1989,-1.1991,-1.1984,-1.1936,-1.1919,-1.1913,-1.1838,-1.1899,-1.1895,-1.1892,-1.189,-1.1707,-1.1705,0,0,0,0,0,0,-1.2093,-1.2083,-1.199,-1.1986,-1.2055,-1.2015,-1.2008,-1.1985,-1.1953,-1.195,-1.1982,-1.1985,-1.1925,-1.1919,-1.1911,-1.183,-1.1894,-1.189,-1.1887,-1.171,-1.1707,-1.1705,0,0,0,0,0,0,-1.2096,-1.2085,-1.1992,-1.2035,-1.2024,-1.201,-1.1984,-1.1983,-1.1966,-1.1947,-1.1945,-1.1968,-1.1927,-1.1917,-1.1861,-1.1829,-1.1888,-1.1884,-1.1712,-1.1709,-1.1706,-1.1667,0,0,0,0,0,0,-1.2099,-1.2085,-1.2059,-1.2034,-1.2021,-1.1943,-1.1982,-1.198,-1.1959,-1.1962,-1.1933,-1.193,-1.1928,-1.1868,-1.1857,-1.1824,-1.188,-1.1715,-1.1711,-1.1707,-1.1671,-1.1663,-1.1656,0,0,0,0,0,-1.2104,-1.205,-1.2058,-1.2047,-1.1989,-1.1941,-1.1934,-1.1933,-1.1956,-1.193,-1.1919,-1.1931,-1.1834,-1.1862,-1.185,-1.1815,-1.1717,-1.1712,-1.1707,-1.1675,-1.1665,-1.1656,0,0,0,0,0,0,-1.2069,-1.2046,-1.2055,-1.1992,-1.1969,-1.1946,-1.1912,-1.1922,-1.1891,-1.1895,-1.1895,-1.1888,-1.1831,-1.1817,-1.1848,-1.1748,-1.1779,-1.1771,-1.1759,-1.1749,-1.1741,-1.1745,-1.1877,0,0,0,0,0,-1.2054,-1.2019,-1.2,-1.1946,-1.1934,-1.1925,-1.1905,-1.1907,-1.1882,-1.1872,-1.1856,-1.1831,-1.1796,-1.1772,-1.1737,-1.167,-1.1665,-1.164,-1.1633,-1.1626,-1.1619,-1.1585,-1.1574,-1.1688,-1.1688,-1.1688,0,0,-1.2023,-1.2006,-1.1983,-1.1939,-1.1921,-1.1884,-1.1917,-1.1875,-1.1848,-1.1865,-1.1812,-1.18,-1.1772,-1.171,-1.1682,-1.1697,-1.1587,-1.162,-1.1615,-1.1612,-1.1578,-1.1568,-1.1558,-1.1685,-1.1685,-1.1686,0,0,-1.1946,-1.193,-1.1884,-1.1866,-1.184,-1.1835,-1.1824,-1.18,-1.1793,-1.174,-1.1753,-1.172,-1.1658,-1.1639,-1.162,-1.154,-1.1551,-1.1529,-1.1488,-1.1454,-1.1445,-1.1437,-1.1409,-1.1399,-1.1522,-1.1522,-1.1522,0,-1.191,-1.1855,-1.1858,-1.1817,-1.1797,-1.1814,-1.1767,-1.1749,-1.1713,-1.1699,-1.1717,-1.1641,-1.1623,-1.1558,-1.1539,-1.1524,-1.1511,-1.1531,-1.1446,-1.1438,-1.1431,-1.1404,-1.1393,-1.152,-1.152,-1.152,-1.152,0,-1.1813,-1.1774,-1.174,-1.1707,-1.1683,-1.1639,-1.1635,-1.1611,-1.1616,-1.1609,-1.1556,-1.1536,-1.1499,-1.1484,-1.1487,-1.142,-1.143,-1.1447,-1.1478,-1.1417,-1.1392,-1.1382,-1.1516,-1.1517,-1.1518,-1.1518,0,0,-1.171,-1.1681,-1.1669,-1.1655,-1.1628,-1.1598,-1.1556,-1.1521,-1.1501,-1.1476,-1.144,-1.1389,-1.1406,-1.1385,-1.1387,-1.1357,-1.1296,-1.1378,-1.1377,-1.1363,-1.1222,-1.1209,-1.1197,-1.1304,-1.1302,-1.13,-1.1224,0,-1.1632,-1.1559,-1.1561,-1.1492,-1.1457,-1.1474,-1.1437,-1.1417,-1.141,-1.138,-1.1372,-1.1336,-1.136,-1.1348,-1.132,-1.1309,-1.1267,-1.1315,-1.127,-1.1268,-1.1276,-1.1184,-1.1169,-1.1099,-1.1214,-1.1213,-1.1212,0,-1.1531,-1.1505,-1.1433,-1.1414,-1.1399,-1.1366,-1.1336,-1.1306,-1.1284,-1.1282,-1.126,-1.1267,-1.1224,-1.1258,-1.1199,-1.1231,-1.1214,-1.1206,-1.1203,-1.1198,-1.1236,-1.1176,-1.1076,-1.1065,-1.1196,-1.1197,-1.1198,0,-1.1464,-1.1411,-1.1361,-1.1349,-1.1325,-1.1301,-1.129,-1.1271,-1.125,-1.1224,-1.1211,-1.118,-1.1162,-1.1138,-1.1136,-1.1161,-1.1077,-1.111,-1.1074,-1.1074,-1.1054,-1.1055,-1.0949,-1.1043,-1.1043,-1.1043,-1.1044,0,-1.1377,-1.1332,-1.1332,-1.1301,-1.1252,-1.1256,-1.1207,-1.1198,-1.1181,-1.1149,-1.1161,-1.1131,-1.1131,-1.1101,-1.1099,-1.1051,-1.1043,-1.104,-1.104,-1.1038,-1.1039,-1.1026,-1.1031,-1.1041,-1.1041,-1.1042,-1.1042,0,-1.1293,-1.1291,-1.1239,-1.1222,-1.1216,-1.1181,-1.1166,-1.1137,-1.1133,-1.1092,-1.1083,-1.1076,-1.104,-1.1037,-1.0996,-1.0995,-1.0937,-1.0942,-1.0945,-1.0946,-1.0909,-1.0913,-1.0791,-1.0776,-1.088,-1.0879,-1.0878,0,-1.1237,-1.1204,-1.1184,-1.1164,-1.1152,-1.112,-1.11,-1.1104,-1.1082,-1.1057,-1.1031,-1.0997,-1.0971,-1.0914,-1.0904,-1.0873,-1.0878,-1.0837,-1.0873,-1.0873,-1.0877,-1.0879,-1.0876,-1.083,-1.0829,-1.0828,-1.0827,0,-1.1138,-1.114,-1.1111,-1.1083,-1.106,-1.1037,-1.1016,-1.0999,-1.1,-1.0976,-1.0941,-1.0921,-1.088,-1.0846,-1.0817,-1.0805,-1.0816,-1.0817,-1.0806,-1.0804,-1.0807,-1.0806,-1.0926,-1.0819,-1.082,-1.082,-1.0821,-1.0821,-1.1067,-1.1039,-1.1021,-1.099,-1.0975,-1.0956,-1.0928,-1.0922,-1.0893,-1.0861,-1.0864,-1.0826,-1.0807,-1.0768,-1.0754,-1.0724,-1.0738,-1.0723,-1.0719,-1.0716,-1.0712,-1.0813,-1.0719,-1.0719,-1.0719,-1.072,-1.072,0,-1.0969,-1.0959,-1.0931,-1.0902,-1.0878,-1.0892,-1.0871,-1.0849,-1.0815,-1.0797,-1.0771,-1.0732,-1.0701,-1.069,-1.0659,-1.0637,-1.0642,-1.0629,-1.0631,-1.0628,-1.0701,-1.0713,-1.0626,-1.0626,-1.0626,-1.0626,-1.0626,-1.0626,-1.0915,-1.0869,-1.0868,-1.0815,-1.0805,-1.0768,-1.0755,-1.0738,-1.0723,-1.0679,-1.0654,-1.0648,-1.0633,-1.0602,-1.0574,-1.0572,-1.056,-1.0545,-1.0545,-1.0613,-1.0623,-1.0632,-1.0643,-1.0542,-1.0542,-1.0474,-1.0473,-1.0473]},{"header":{"parameterUnit":"m.s-1","parameterCategory":1,"la1":30.2991,"la2":30.254,"lo1":-89.0895,"lo2":-89.0444,"dy":0.0017,"dx":0.0017,"nx":28,"ny":28,"refTime":"2025-04-27T03:00:00:Z","depth":0,"parameterNumber":3,"parameterNumberName":"V-component_of_WINDS"},"data":[0,0,0,0,0,0,0,0,0,0,0,0,0,0,0,0,0,0,0,0,0,0,0,0,0,0,0,0,0,0,0,0,0,0,0,0,0,0,0,0,0,0,0,0,0,0,0,0,0,0,0,0,0,0,0,0,0,0,2.9966,2.9965,0,2.9903,2.9902,2.9902,2.988,2.988,2.988,2.988,2.9811,2.9809,2.9807,0,0,0,0,0,0,0,0,0,0,0,0,0,3.0064,3.0063,2.9966,2.9965,2.9965,2.9903,2.9902,2.9901,2.988,2.988,2.988,2.988,2.9812,2.981,2.9807,0,0,0,0,0,0,0,0,0,0,0,0,0,3.0013,3.0062,2.9966,2.9946,2.9944,2.9903,2.9902,2.9901,2.9879,2.988,2.988,2.9881,2.9813,2.981,2.9807,2.978,0,0,2.9797,2.9796,0,0,0,0,0,0,0,0,3.0016,3.001,2.995,2.9948,2.9945,2.99,2.9912,2.986,2.9879,2.9904,2.988,2.9881,2.984,2.9835,2.9822,2.9777,2.9774,2.9797,2.9795,2.9794,2.9793,0,0,0,0,0,0,0,3.002,3.0012,2.9941,2.9949,2.9946,2.994,2.9933,2.9902,2.987,2.9902,2.99,2.9893,2.9839,2.9825,2.982,2.9773,2.9797,2.9794,2.9792,2.9791,2.9703,2.9703,0,0,0,0,0,0,3.0027,3.0015,2.9943,2.9939,2.9982,2.9937,2.993,2.9914,2.9871,2.9865,2.9893,2.9892,2.983,2.9824,2.9818,2.9784,2.9794,2.9791,2.9789,2.9704,2.9703,2.9703,0,0,0,0,0,0,3.0029,3.0021,2.9946,2.9977,2.9967,2.9935,2.9917,2.9912,2.9899,2.9864,2.9858,2.9885,2.983,2.9822,2.979,2.9781,2.9789,2.9787,2.9704,2.9704,2.9703,2.9716,0,0,0,0,0,0,3.0032,3.0022,3.0012,2.9977,2.9965,2.992,2.9917,2.9911,2.9894,2.9893,2.9855,2.9849,2.983,2.9795,2.9787,2.9777,2.9784,2.9705,2.9704,2.9703,2.9717,2.9716,2.9716,0,0,0,0,0,3.0036,3.0017,3.0012,3.0003,2.9952,2.992,2.9913,2.9892,2.9893,2.9883,2.9861,2.985,2.9784,2.9792,2.9783,2.9772,2.9705,2.9704,2.9703,2.9717,2.9716,2.9716,0,0,0,0,0,0,3.005,3.0012,3.0006,2.9975,2.9951,2.9916,2.9902,2.9892,2.9866,2.9866,2.984,2.9832,2.9802,2.9784,2.9793,2.9744,2.9744,2.9741,2.9757,2.9757,2.9756,2.9761,2.9782,0,0,0,0,0,3.005,3.0028,2.9995,2.9971,2.996,2.9933,2.9918,2.9905,2.9878,2.9867,2.9843,2.9816,2.9789,2.9772,2.9745,2.9714,2.9706,2.9702,2.9702,2.9702,2.97,2.9682,2.9681,2.9699,2.9699,2.9699,0,0,3.0049,3.0025,3.0012,2.9974,2.9953,2.993,2.9924,2.9899,2.9882,2.9863,2.9832,2.9813,2.9782,2.975,2.9735,2.9734,2.9693,2.9701,2.9701,2.9698,2.9681,2.9679,2.9678,2.9699,2.9699,2.9699,0,0,3.0035,3.0015,2.9993,2.9974,2.9944,2.9927,2.9922,2.9889,2.9876,2.9845,2.9831,2.9808,2.9763,2.9741,2.9724,2.9705,2.9694,2.9697,2.9695,2.9678,2.9677,2.9675,2.9668,2.9666,2.9694,2.9694,2.9694,0,3.0036,3.0002,2.9983,2.9959,2.9943,2.9927,2.9905,2.9886,2.9848,2.9837,2.9837,2.978,2.9758,2.9722,2.9717,2.9704,2.9697,2.97,2.9679,2.9677,2.9675,2.9668,2.9666,2.9695,2.9695,2.9695,2.9695,0,3.0006,2.9982,2.9968,2.9934,2.9916,2.9893,2.987,2.9854,2.9843,2.9825,2.9794,2.9767,2.9735,2.9726,2.9714,2.9688,2.9689,2.9684,2.9683,2.9674,2.9667,2.9665,2.9696,2.9695,2.9695,2.9695,0,0,2.9997,2.9955,2.995,2.9935,2.9902,2.9883,2.9859,2.983,2.9817,2.9792,2.9771,2.9734,2.973,2.9711,2.9696,2.9682,2.9669,2.9679,2.9678,2.9678,2.9639,2.9643,2.964,2.9662,2.9661,2.9661,2.9642,0,2.9978,2.9937,2.992,2.9886,2.9864,2.985,2.983,2.9807,2.979,2.9768,2.975,2.9724,2.9721,2.9709,2.9695,2.9673,2.966,2.9675,2.9642,2.9641,2.9649,2.9636,2.9639,2.9622,2.9639,2.9638,2.9638,0,2.995,2.9928,2.9892,2.9864,2.9854,2.9836,2.9808,2.9788,2.9762,2.9751,2.9731,2.9718,2.9692,2.9694,2.9658,2.9668,2.9654,2.9642,2.964,2.9636,2.9638,2.9631,2.9616,2.9614,2.9633,2.9634,2.9634,0,2.9948,2.9908,2.9882,2.987,2.9835,2.9823,2.9808,2.9782,2.9766,2.9742,2.9731,2.9704,2.9688,2.9667,2.9647,2.965,2.9613,2.9613,2.9602,2.9603,2.9594,2.9595,2.9577,2.9586,2.9586,2.9586,2.9586,0,2.9928,2.9907,2.9881,2.9864,2.9841,2.9822,2.9798,2.9782,2.9759,2.9739,2.9725,2.9706,2.9681,2.9659,2.9643,2.9615,2.9609,2.9598,2.9594,2.9599,2.9601,2.9589,2.9589,2.9585,2.9585,2.9586,2.9586,0,2.992,2.9902,2.9873,2.9844,2.9836,2.9819,2.9794,2.9777,2.9761,2.9736,2.9729,2.9703,2.9676,2.9655,2.9619,2.9608,2.958,2.9575,2.9589,2.9587,2.9578,2.9579,2.9551,2.9546,2.9559,2.9559,2.9559,0,2.9909,2.9893,2.9863,2.9849,2.9835,2.9813,2.9797,2.9778,2.9762,2.9732,2.9719,2.9692,2.9669,2.9628,2.9605,2.9578,2.9572,2.9565,2.9568,2.9574,2.9572,2.9573,2.9571,2.9564,2.9564,2.9564,2.9564,0,2.9891,2.9883,2.9862,2.9837,2.982,2.9799,2.9778,2.9768,2.9744,2.9727,2.9701,2.9684,2.9649,2.9622,2.9593,2.9576,2.9566,2.9563,2.9559,2.9564,2.9573,2.9568,2.9588,2.9564,2.9564,2.9564,2.9564,2.9564,2.988,2.9866,2.9843,2.982,2.9803,2.9784,2.9768,2.975,2.9729,2.97,2.969,2.9663,2.9638,2.9599,2.9582,2.956,2.9559,2.9553,2.9552,2.9551,2.9551,2.9577,2.9555,2.9555,2.9555,2.9555,2.9555,0,2.9861,2.9846,2.9826,2.9798,2.978,2.9774,2.9751,2.9736,2.9713,2.9692,2.9671,2.9641,2.9615,2.9592,2.9565,2.9552,2.9546,2.9545,2.9546,2.9542,2.9554,2.956,2.955,2.955,2.955,2.955,2.955,2.955,2.9849,2.9824,2.9814,2.9781,2.9766,2.9741,2.9728,2.9711,2.9694,2.9662,2.9641,2.9627,2.9604,2.9576,2.9552,2.9546,2.9536,2.9537,2.9529,2.954,2.9541,2.9542,2.9547,2.9535,2.9535,2.9519,2.9518,2.9518]}]]